SCP
0 0 0 0 0 0 0 0 0 0 0 0 0 0 0 0 0 0 0 0 0 0 0 0 0 -0 -0 -0 -0 0 0 0 0 0 0 0 0 0 0 0 0 0 0 0
0 0 0 0 0 0 0 0 0 0 0 0 0 0 0 0 0 0 0 0 0 0 0 0 0 0 -0 -0 -0 0 0 0 0 0 0 0 0 0 0 0 0 0 0 0
0 0 0 0 0 0 0 0 0 0 0 0 0 0 0 0 0 0 0 0 0 0 -0 0 0 0 -0 -0 0 0 0 0 0 0 0 0 0 -0 -0 -0 0 0 0 0
0 0 0 0 0 0 0 0 0 0 0 0 0 0 0 0 0 0 0 0 0 0 -0 -0 0 0 0 0 0 0 0 0 0 0 0 0 0 0 0 -0 0 0 0 0
0 0 0 0 0 0 0 0 0 0 0 0 0 0 0 0 0 0 0 0 0 0 0 0 0 0 0 0 0 0 0 0 0 0 0 0 0 0 0 -0 0 0 0 0
0 0 0 0 0 0 0 0 0 0 0 0 0 0 0 0 0 0 0 0 0 0 0 0 0 0 0 0 0 0 0 0 0 0 0 0 0 0 0 0 0 0 0 0
0 0 0 0 0 0 0 0 0 0 0 0 0 0 0 0 0 0 0 0 0 0 0 0 0 0 0 0 0 0 0 0 0 0 0 0 0 0 0 0 0 0 0 0
0 0 0 0 0 0 0 0 0 0 0 0 0 0 0 0 0 0 0 0 0 0 0 0 0 0 -0 0 0 0 0 0 0 0 0 0 0 0 0 0 0 0 0 0
0 0 0 0 0 0 0 0 0 0 0 0 0 0 0 0 0 0 0 0 0 0 0 0 0 0 -0 0 0 0 0 0 0 0 0 0 0 0 0 0 0 0 0 0
0 0 0 0 0 0 0 0 0 0 0 0 0 0 0 0 0 0 0 0 0 0 0 0 0 0 0 0 0 0 0 0 0 0 0 0 0 0 0 0 0 0 0 0
0 0 0 0 0 0 0 0 0 0 0 0 0 0 0 0 0 0 0 0 0 0 0 0 0 0 0 0 0 0 0 0 0 0 0 0 0 0 0 0 0 0 0 0
0 0 0 0 0 0 0 0 0 0 0 0 0 0 0 0 0 0 0 0 0 0 0 0 0 0 0 0 0 0 0 0 0 0 0 0 0 0 0 0 0 0 0 0
0 0 0 0 0 0 0 0 0 0 0 0 0 0 0 0 0 0 0 0 0 0 0 0 0 0 0 0 0 0 0 0 0 0 0 0 0 0 0 0 0 0 0 0
0 0 0 0 0 0 0 0 0 0 0 0 0 0 0 0 0 0 0 0 0 0 0 0 0 0 0 0 0 0 0 0 0 0 0 0 0 0 0 0 0 0 0 0
0 0 0 0 0 0 0 0 0 0 0 0 0 0 0 0 0 0 0 0 0 0 0 0 0 0 0 0 0 0 0 0 0 0 0 0 0 0 0 0 0 0 0 0
0 0 0 0 0 0 0 0 0 0 0 0 0 0 0 0 0 0 0 0 0 0 0 0 0 0 0 0 0 0 0 0 0 0 0 0 0 0 0 0 0 0 0 0
0 0 0 0 0 0 0 0 0 0 0 0 0 0 0 0 0 0 0 0 0 0 0 0 0 0 0 0 0 0 0 0 0 0 0 0 0 0 0 0 0 0 0 0
0 0 0 0 0 0 0 0 0 0 0 0 0 0 0 0 0 0 0 0 0 0 0 0 0 0 -0 -0 0 0 0 0 0 0 0 0 0 0 0 0 0 0 0 0
0 0 0 0 0 0 0 0 0 0 0 0 0 0 0 0 0 0 0 0 0 0 0 0 0 0 -0 -0 -0 0 0 0 0 0 0 0 0 0 0 0 0 0 0 0
0 0 0 0 0 0 0 0 0 0 0 0 0 0 0 0 0 0 0 0 0 0 0 0 0 0 0 0 0 0 0 0 0 0 0 0 0 0 0 0 0 0 0 0
0 0 0 0 0 0 0 0 0 0 0 0 0 0 0 0 0 0 0 0 0 0 0 0 0 0 0 0 0 0 0 0 0 0 0 0 0 0 0 0 0 0 0 0
0 0 0 0 0 0 0 0 0 0 0 0 0 0 0 0 0 0 0 0 0 0 0 0 0 0 0 0 0 0 0 0 0 0 0 0 0 0 0 0 0 0 0 0
0 0 0 0 0 0 0 0 0 0 0 0 0 0 0 0 0 0 0 0 0 0 0 0 0 0 0 0 0 0 0 0 0 0 0 0 0 0 0 0 0 0 0 0
0 0 0 0 0 0 0 0 0 0 0 0 0 0 0 0 0 0 0 0 0 0 0 0 0 0 0 0 0 0 0 0 0 0 0 0 0 0 0 0 0 0 0 0
0 0 0 0 0 0 0 0 0 0 0 0 0 0 0 0 0 0 0 0 0 0 0 0 0 0 0 0 0 0 0 0 0 0 0 0 0 0 0 0 0 0 0 0
0 0 0 0 0 0 0 0 0 0 0 0 0 0 0 0 0 0 0 0 0 0 0 0 0 0 0 0 0 0 0 0 0 0 0 0 0 0 0 0 0 0 0 0
Wind_Speed
1 3 2 4 5 4 3 3 2 3 3 4 4 3 2 3 5 6 6 5 5 5 4 4 4 6 6 5 5 5 5 4 4 3 2 2 2 1 1 1 1 2 2 2
3 2 6 4 3 3 2 3 1 1 2 4 4 2 0 3 4 6 7 7 6 4 3 3 3 4 5 5 5 5 5 4 4 3 2 2 2 1 0 1 1 1 1 1
4 5 4 3 3 3 2 4 4 3 2 3 3 3 2 1 1 2 4 6 6 7 7 5 4 4 5 5 6 6 5 5 4 3 3 3 3 3 2 2 1 2 1 1
3 4 1 2 2 4 2 3 5 5 4 0 2 1 3 2 1 3 4 5 6 6 6 5 5 5 5 5 5 6 5 4 4 4 4 3 2 1 2 2 2 2 1 1
2 2 2 2 2 4 3 4 4 4 4 2 2 3 4 1 2 4 5 6 6 6 7 6 6 6 5 5 5 5 5 4 3 4 4 4 2 1 1 1 1 2 2 2
2 2 2 3 2 4 5 6 6 5 4 2 1 3 3 3 5 5 4 5 5 6 6 5 4 4 4 4 5 5 5 3 3 3 4 4 3 2 1 1 1 2 2 2
2 1 1 3 4 3 5 6 4 3 3 2 2 2 4 4 4 6 7 6 5 6 6 6 5 5 4 4 4 5 5 3 3 3 3 3 3 3 2 1 1 1 1 2
1 2 3 3 4 4 3 6 6 4 3 1 1 1 4 2 3 5 5 6 5 5 5 6 6 5 5 5 5 5 5 3 3 3 3 2 2 2 1 1 1 1 2 2
3 2 2 3 4 7 5 3 4 5 3 2 0 0 2 2 5 5 6 6 6 5 5 5 4 4 4 5 5 5 5 3 3 3 3 2 2 2 1 1 1 1 1 1
4 2 3 2 4 2 5 6 4 4 4 2 0 1 3 4 4 5 5 6 5 5 4 4 4 3 3 3 3 3 4 4 3 3 2 2 2 2 2 1 0 1 1 1
3 3 1 1 3 5 3 3 4 3 4 5 3 4 4 7 7 8 7 6 6 6 5 4 3 2 2 2 2 3 3 2 2 2 2 1 1 1 1 1 1 1 1 1
3 5 1 4 4 4 5 5 6 5 2 3 4 4 2 6 6 8 7 5 4 5 4 4 3 3 3 2 2 2 1 2 2 2 2 2 1 1 1 1 1 1 1 2
4 5 3 4 5 2 1 3 5 6 5 3 4 3 2 5 6 6 7 5 4 4 4 4 3 3 2 2 2 1 1 1 1 2 2 1 1 1 1 2 2 1 1 1
5 4 6 7 6 4 2 2 4 6 4 4 4 5 3 6 7 6 6 6 5 4 4 4 3 1 1 1 1 1 1 1 1 2 2 1 1 1 2 2 1 1 1 1
4 2 2 3 3 3 2 4 5 5 7 7 7 8 9 9 9 8 7 6 6 5 4 3 2 1 1 1 1 1 0 1 1 2 1 1 1 1 1 1 1 1 1 1
3 2 1 2 1 1 1 2 4 4 5 7 8 4 4 5 6 6 7 8 7 5 4 3 3 2 1 1 1 1 1 1 2 2 0 0 1 1 1 1 1 1 2 2
3 4 3 1 2 3 2 3 5 4 5 9 8 7 8 8 8 8 8 8 7 5 4 3 2 2 1 1 2 2 1 1 2 1 0 1 0 1 1 2 1 2 2 2
5 4 4 1 2 1 6 3 5 6 3 4 6 8 11 10 7 5 6 8 6 5 4 3 2 2 1 1 2 2 2 2 2 1 1 1 1 1 1 2 2 2 2 2
6 7 4 3 2 2 4 1 4 7 1 3 8 9 8 10 8 3 1 5 6 5 4 3 3 2 2 2 2 3 3 2 2 1 1 1 1 1 1 2 2 2 2 2
5 6 6 4 4 5 6 3 2 8 1 2 8 11 10 8 5 4 3 4 5 4 4 4 3 4 3 2 3 4 3 3 2 2 2 2 1 1 1 2 2 2 2 2
3 3 4 4 3 5 5 2 4 5 7 5 7 11 9 6 6 6 5 5 5 4 4 4 4 3 2 1 3 4 2 2 2 2 1 1 1 1 2 2 2 2 2 2
6 5 4 5 3 7 3 3 5 6 3 7 6 7 7 7 7 7 6 6 5 5 4 4 4 3 2 2 3 3 2 3 2 2 2 2 2 2 2 2 2 2 2 2
4 6 6 6 5 4 1 3 3 6 7 5 6 7 10 9 7 6 5 5 4 4 4 3 4 3 2 2 2 2 2 2 2 2 2 3 3 2 2 2 2 3 2 2
1 2 5 3 1 1 3 4 5 6 7 7 8 9 9 8 7 6 5 4 3 3 3 3 3 3 1 1 1 0 1 1 2 2 2 3 3 3 3 2 2 2 2 3
2 3 4 3 1 3 3 4 7 9 9 10 8 7 8 9 7 5 4 4 3 2 2 2 3 2 0 1 1 2 1 1 1 1 2 3 3 3 3 3 3 3 4 4
2 4 7 7 8 6 4 3 7 10 9 9 9 7 6 7 6 6 4 3 3 3 2 2 2 1 0 1 1 2 1 0 0 1 2 2 2 3 3 3 5 6 6 9
Wind_Direction
68 77 211 221 198 187 154 143 179 237 212 125 137 148 166 147 140 153 165 167 171 178 172 153 148 146 141 140 137 137 133 130 116 102 98 86 67 42 37 28 71 82 64 47
48 252 237 227 214 164 143 137 182 300 111 120 112 86 186 157 171 174 179 178 175 169 151 157 151 144 146 149 146 141 141 143 136 132 137 139 139 135 130 357 18 32 48 19
185 245 237 199 185 163 173 167 171 147 79 64 88 25 343 269 175 178 178 176 174 172 173 175 165 160 149 151 157 153 153 150 143 129 101 74 54 34 18 0 334 311 315 345
215 251 197 150 166 155 188 190 156 136 117 34 109 145 290 240 202 197 191 178 182 179 171 170 167 165 164 165 157 146 147 145 143 130 122 125 126 156 238 247 273 300 307 297
249 211 167 154 164 140 166 145 121 118 113 75 46 110 288 263 195 216 204 189 186 177 168 167 166 168 163 154 148 145 139 141 143 135 136 131 137 191 247 287 309 319 319 300
244 208 165 154 124 127 121 87 63 55 71 61 247 131 266 233 207 197 193 185 180 173 163 156 147 132 126 127 132 132 136 143 144 136 140 147 159 171 169 319 317 316 313 313
348 332 187 134 96 66 88 89 63 30 29 257 223 118 247 242 198 174 172 176 168 160 150 143 140 138 138 137 138 137 142 148 149 137 140 154 165 166 181 221 240 270 294 294
116 290 233 168 149 149 137 129 145 161 178 253 21 181 260 252 147 139 142 141 137 141 148 156 162 159 156 153 147 143 150 158 165 156 160 173 168 160 188 206 205 230 242 258
168 254 262 169 139 135 130 156 165 131 125 103 219 191 345 54 93 110 121 122 133 139 144 149 151 158 163 162 163 160 157 159 173 179 174 180 181 176 197 213 214 253 272 281
157 188 256 194 93 58 149 150 108 116 136 131 139 207 203 183 153 134 135 141 146 142 139 141 145 153 160 164 162 153 157 173 178 172 177 173 191 193 190 168 246 290 297 308
153 140 281 149 187 183 160 141 130 123 148 142 162 259 221 184 172 155 155 155 154 151 148 147 147 152 140 125 137 149 165 170 180 182 178 153 182 195 170 163 248 272 303 310
155 124 183 244 249 176 160 170 148 143 162 135 140 261 286 159 152 145 144 146 146 144 143 137 129 115 111 116 117 132 159 177 190 181 162 167 178 179 184 232 261 285 309 303
133 115 87 357 346 354 158 178 153 130 112 133 141 243 2 121 124 135 139 141 133 126 117 109 105 111 123 132 130 125 140 170 166 146 136 135 162 191 227 242 255 274 299 321
115 117 156 183 209 201 204 193 159 129 131 155 179 169 169 148 143 147 146 143 135 129 125 116 112 117 128 133 135 137 137 149 138 128 126 140 212 219 233 244 245 252 268 302
99 114 188 223 222 170 183 192 173 153 162 160 176 170 189 176 162 160 149 135 123 117 113 119 134 132 106 94 106 138 85 73 103 100 96 256 269 272 295 279 264 273 281 281
97 128 73 344 311 109 113 176 156 148 140 136 134 169 187 150 127 130 138 133 127 127 126 127 125 115 100 125 148 108 81 93 98 102 116 346 27 15 331 298 284 298 297 294
135 128 103 270 310 53 309 230 168 146 147 146 162 185 150 138 149 158 153 141 142 143 138 129 128 132 144 152 138 135 160 110 93 90 28 11 24 340 315 329 333 300 289 296
139 118 121 122 50 182 252 264 148 131 134 145 144 152 156 153 148 143 149 144 143 139 131 128 120 105 85 77 90 92 84 84 78 50 358 338 343 314 317 334 310 295 292 286
143 133 119 118 130 280 294 280 149 131 123 149 140 142 135 121 89 55 138 143 148 145 139 137 133 118 84 65 86 84 67 60 53 11 328 307 279 304 327 314 300 288 296 296
89 104 116 124 147 215 241 269 142 103 113 237 144 144 143 125 125 210 185 131 122 117 119 115 104 86 75 49 75 78 63 50 11 308 294 301 306 277 272 271 279 289 283 284
92 82 123 146 181 251 255 255 106 133 213 197 159 151 149 154 170 167 138 117 116 112 108 103 96 87 81 70 80 72 47 353 296 304 332 344 326 293 277 284 289 297 298 310
160 152 163 143 167 243 265 129 161 197 162 145 143 142 131 124 118 120 123 121 115 105 97 98 93 78 49 64 83 70 0 308 325 356 1 343 329 322 340 320 307 304 296 302
166 179 167 170 199 246 242 159 150 134 124 123 124 126 125 119 121 123 125 125 120 113 106 99 103 83 39 37 84 82 306 318 5 18 356 336 334 330 331 319 308 313 310 298
312 104 107 102 326 26 78 89 91 106 111 114 121 123 121 121 126 124 124 126 122 112 109 104 100 87 31 360 32 282 296 339 38 10 337 332 330 321 321 314 304 300 294 292
215 113 105 112 165 84 49 101 113 101 101 102 102 106 116 119 121 123 124 128 134 124 111 111 115 117 0 340 344 329 331 35 29 343 324 324 321 311 308 304 284 277 264 258
223 162 159 192 198 163 180 169 126 115 115 118 111 96 99 113 120 114 115 122 124 123 118 109 104 106 345 344 332 324 324 31 34 326 316 311 310 308 307 307 309 295 285 292